Theta_e
356 358 360 359 359 360 361 359 357 356 353 350 350 349 349 350 350 350 351 352 354 355 357 357 358 358 357 357 357 357 358 359 359 359 361 362 360 359 359 361 362 362 361 361 358 357 357 357 356 355 354 354 353 353 351 350 351 349 350 352 352 353 355 355 358 361 359 358 357 354 353 354 352 354 358 357 358 360 356 355 357 357 358 360 358
355 355 357 357 356 359 361 360 357 355 353 350 350 350 349 349 349 348 349 350 352 353 355 356 356 357 357 355 354 355 357 357 357 357 359 361 361 360 359 360 362 363 361 361 360 359 359 359 360 359 358 357 356 356 354 351 350 350 349 351 352 352 353 355 356 359 360 359 358 357 355 353 353 355 358 359 359 358 357 358 358 358 359 359 357
355 355 356 355 354 357 360 361 358 355 352 351 350 350 349 349 349 348 348 349 349 351 353 355 355 355 356 355 353 352 354 356 356 356 358 360 361 360 358 359 362 364 362 361 361 360 360 360 361 361 359 358 358 357 356 352 350 350 349 350 351 351 351 353 355 357 359 359 359 358 357 356 356 358 359 359 359 357 357 360 360 358 358 359 357
355 355 355 353 352 353 356 358 358 356 353 350 350 350 350 350 350 348 347 348 348 349 351 353 355 355 355 354 353 352 353 355 356 356 356 358 360 360 359 358 359 361 360 361 361 360 359 360 360 361 359 357 358 357 357 355 352 351 351 350 350 350 351 353 354 356 358 360 361 360 360 360 359 359 359 358 359 359 358 359 360 359 358 359 359
354 354 353 353 351 350 352 354 355 356 353 349 348 349 349 349 350 349 347 347 348 348 350 351 353 354 354 354 354 353 353 355 356 357 356 356 358 360 360 358 357 358 359 359 359 359 358 358 359 360 359 357 358 358 358 357 354 353 352 351 351 351 352 353 354 356 358 361 362 362 363 364 363 362 361 360 360 361 360 358 357 357 357 360 361
352 353 352 353 352 351 351 353 353 352 352 349 348 347 347 346 348 350 349 347 346 347 349 350 352 352 353 353 354 353 353 355 356 356 355 355 356 358 358 357 355 355 356 357 357 356 356 357 357 358 358 357 358 358 359 357 356 355 354 353 353 352 353 353 354 356 359 361 362 364 364 364 363 361 360 360 360 360 360 359 356 355 356 360 363
351 351 351 352 353 353 353 352 352 352 352 349 346 345 346 345 345 347 348 347 346 346 347 350 350 351 351 352 354 354 354 354 355 355 355 354 354 354 355 354 353 352 353 354 354 354 354 354 355 356 356 357 357 358 358 357 357 357 356 355 355 355 355 355 356 357 360 362 363 364 363 363 362 361 360 360 359 359 360 361 360 359 360 362 363
352 351 350 350 352 352 352 352 352 352 352 352 350 347 344 344 344 344 347 348 346 345 345 348 350 350 351 353 354 356 355 355 355 355 356 355 353 353 352 351 351 351 352 352 352 352 352 352 353 353 354 355 356 357 358 357 357 357 357 357 357 356 357 357 357 358 360 362 363 363 362 362 362 362 360 359 357 358 358 358 360 363 363 361 359
352 353 352 351 352 352 351 352 352 352 352 351 353 353 349 345 344 344 345 346 347 346 344 345 348 349 350 352 354 356 356 356 356 356 356 355 353 351 350 350 350 349 350 351 351 350 350 349 349 350 351 352 354 354 355 356 357 357 357 357 357 357 357 359 359 359 360 361 362 362 362 362 362 361 360 358 357 357 357 357 360 361 358 357 357
352 352 352 352 354 355 353 352 351 352 352 351 353 356 356 353 350 349 348 346 345 345 344 343 345 348 349 351 353 355 356 355 356 356 356 355 354 351 348 348 349 348 348 348 348 349 349 349 347 346 346 349 350 351 352 352 353 355 356 358 358 357 358 359 359 360 361 362 361 361 361 362 361 359 359 358 358 358 357 357 358 357 356 358 360
352 351 351 352 353 354 354 353 353 353 353 352 352 354 356 356 355 353 353 352 349 347 345 344 343 345 347 350 351 353 353 352 352 354 355 355 355 353 349 347 346 347 347 347 347 348 348 347 347 346 345 345 346 348 349 350 351 351 352 355 358 360 360 360 360 361 361 362 362 360 360 360 359 358 357 356 354 353 351 352 355 357 358 359 360
349 349 350 351 351 351 351 353 355 355 355 355 356 356 355 356 356 354 353 352 352 351 350 349 346 344 345 347 349 351 352 350 348 348 351 352 353 353 352 349 346 346 346 347 348 348 348 347 346 345 344 343 344 345 346 348 349 349 349 349 351 354 357 360 361 362 363 363 362 361 360 359 359 358 357 355 354 352 350 349 350 352 354 356 358
345 345 347 348 347 347 349 351 353 355 355 355 356 357 357 356 355 355 354 353 352 351 351 352 351 349 347 346 347 349 350 350 347 345 346 347 348 349 351 351 348 346 345 346 347 348 349 349 348 347 344 342 342 343 344 345 345 346 346 346 346 346 347 350 354 357 361 363 364 363 361 360 360 359 357 356 355 354 353 351 350 350 350 352 354
342 343 344 344 343 344 346 347 350 352 353 353 353 353 355 355 355 355 355 354 354 354 353 352 353 353 352 350 349 350 349 348 348 346 344 344 345 346 347 348 348 346 345 344 346 347 348 349 349 349 348 345 343 343 345 346 346 346 345 346 346 345 344 343 342 343 348 354 360 360 358 357 359 359 358 358 358 357 357 356 355 355 353 351 352
340 341 341 341 341 342 343 345 348 350 350 352 352 352 352 354 355 355 355 355 355 355 354 353 353 354 355 354 353 353 352 351 349 348 345 343 343 344 345 346 346 345 344 344 344 345 346 348 349 349 349 348 346 345 346 347 349 350 350 350 350 349 349 345 341 336 334 339 346 349 348 348 350 352 353 355 357 357 357 356 355 357 356 356 356
337 338 337 338 339 341 342 345 347 349 349 351 351 351 352 354 355 356 356 356 356 355 354 354 352 352 354 356 356 355 355 354 353 351 349 345 343 343 344 346 347 346 345 344 343 343 343 344 347 349 351 351 350 349 348 348 349 352 355 357 358 359 358 354 348 343 338 335 335 336 336 337 338 340 342 346 350 352 353 357 358 358 358 360 360
334 335 335 335 337 339 341 344 345 346 348 349 348 348 350 351 353 355 355 355 356 355 355 355 354 353 354 356 358 358 357 357 356 354 352 349 346 344 344 347 349 348 347 347 347 347 346 345 345 346 348 351 352 353 353 351 350 351 353 357 360 363 364 361 359 356 352 348 344 341 339 338 338 337 337 338 343 346 350 357 361 362 361 362 363
332 333 333 334 334 335 337 341 343 344 346 347 346 346 347 348 349 351 352 354 355 355 355 355 355 356 356 357 358 359 358 358 358 356 355 353 350 347 346 347 349 350 350 350 351 351 351 351 349 347 347 348 349 352 355 355 354 353 352 354 356 359 361 361 360 358 356 355 354 353 351 349 346 344 341 340 341 344 347 351 355 358 361 362 363
328 329 331 332 333 334 335 337 337 339 342 345 346 346 347 346 346 349 350 351 354 355 356 356 357 357 357 357 358 358 358 358 357 357 357 356 354 351 348 348 350 351 352 353 354 354 353 354 354 352 350 349 348 349 352 355 357 357 356 356 356 356 356 356 357 356 355 355 355 356 355 354 352 351 349 347 345 346 347 347 349 353 357 358 359
325 327 328 329 331 334 336 336 334 333 334 339 344 346 346 345 346 348 349 350 352 353 355 356 356 356 356 357 357 357 356 356 357 357 356 357 356 353 351 350 351 353 353 354 355 355 356 355 355 355 354 352 351 349 350 352 354 357 358 358 358 357 355 356 356 355 354 353 354 356 356 356 355 354 354 353 351 350 349 348 349 351 354 356 356
326 325 326 327 329 331 334 336 337 335 331 329 333 339 341 343 346 347 347 349 351 351 352 353 354 354 354 354 354 354 355 355 354 353 352 354 355 353 351 351 353 354 354 355 355 356 356 357 357 357 356 355 354 352 352 351 351 354 356 358 357 357 357 358 358 357 355 355 355 357 358 359 358 357 356 356 355 355 354 352 351 350 351 354 355
327 326 325 326 328 329 330 332 335 337 335 330 329 330 330 333 339 343 344 347 350 351 351 352 352 352 351 351 352 354 354 353 353 353 353 353 354 353 351 352 354 354 355 356 356 356 357 357 358 358 358 358 357 356 355 354 353 352 353 354 355 356 358 358 359 359 358 358 357 358 360 361 362 361 360 359 359 358 358 357 356 354 353 352 352
327 327 327 327 328 328 328 328 329 333 336 336 336 335 330 329 333 336 337 343 349 351 351 352 352 351 350 350 351 352 353 353 355 355 354 353 354 354 354 354 354 353 354 355 356 358 358 359 359 359 359 359 359 359 358 357 356 354 354 354 354 355 357 358 359 359 359 358 358 358 359 360 361 362 362 361 360 360 360 360 360 359 357 355 353
326 328 328 328 328 327 327 328 328 329 331 334 336 337 337 337 337 334 333 339 347 350 351 352 352 352 351 351 351 351 353 354 355 354 354 354 355 354 354 354 353 352 352 353 355 356 357 357 358 358 359 360 360 360 359 359 358 357 357 356 355 355 355 356 357 358 359 359 358 358 358 358 358 359 360 360 359 358 358 359 359 359 359 358 356
326 326 326 326 327 327 328 329 328 328 328 328 329 332 336 339 339 336 336 340 346 349 350 352 354 354 352 352 352 352 353 353 354 355 354 355 356 356 355 354 354 353 352 353 354 355 355 355 355 354 355 357 359 359 359 359 359 359 358 358 358 356 355 355 356 357 358 358 358 358 357 356 355 355 355 356 358 358 358 358 357 357 358 358 358
325 325 325 326 326 328 328 328 327 326 325 324 324 326 328 331 334 337 340 344 347 349 350 351 352 353 351 351 352 351 351 352 354 356 356 355 354 354 355 356 356 356 354 353 353 353 354 355 355 354 352 354 355 356 358 358 358 358 358 358 358 357 356 356 355 356 356 357 357 357 357 356 355 354 353 353 355 356 356 357 357 357 358 360 360
325 326 326 326 326 327 327 327 327 326 326 325 325 324 323 325 330 337 342 344 346 347 348 348 348 347 347 348 348 349 351 353 353 354 354 354 354 354 355 355 355 355 355 354 353 352 353 354 355 355 354 353 352 353 355 356 356 356 357 357 358 358 357 357 356 356 357 357 357 357 356 356 356 356 355 355 355 355 354 355 357 358 359 360 361
324 325 325 326 326 326 326 327 328 328 328 328 327 326 325 327 332 337 339 339 339 340 342 342 340 338 338 341 343 345 346 348 351 352 352 350 350 352 353 354 354 354 354 354 353 352 351 352 352 353 353 352 351 352 354 355 355 355 355 356 357 358 357 357 356 356 356 357 357 357 357 356 356 356 356 356 356 356 356 357 357 358 358 359 360
323 323 324 324 325 325 325 325 326 326 327 327 328 328 329 329 332 333 334 334 335 336 337 335 331 329 329 332 336 338 339 341 344 346 346 344 344 346 347 349 351 352 352 352 352 352 352 352 351 351 351 352 352 353 354 355 355 355 355 355 355 356 357 356 356 356 356 356 357 357 357 357 357 356 356 356 356 357 358 359 359 359 359 359 360
321 322 322 322 323 323 323 323 323 323 324 325 325 326 327 328 327 327 327 328 330 330 330 329 327 328 330 333 335 338 339 339 339 339 338 338 340 344 345 346 347 348 349 349 349 350 351 351 351 351 351 352 353 354 355 355 357 357 357 357 356 355 355 356 355 356 356 356 356 356 356 357 357 357 357 357 356 356 357 358 360 361 361 361 361
320 321 321 322 322 323 323 323 324 324 324 324 325 325 326 326 325 325 325 325 325 326 327 329 331 333 335 337 338 339 340 339 338 337 336 335 337 340 342 344 345 346 346 347 347 348 350 350 351 352 353 353 354 355 356 356 357 358 358 358 358 357 356 356 356 356 355 355 356 356 356 356 357 358 357 357 357 357 357 358 359 361 362 363 363
319 319 320 320 321 322 323 324 324 324 324 325 326 326 326 327 327 328 328 328 328 330 330 332 334 335 335 336 337 337 338 337 336 334 333 333 333 335 337 340 343 345 346 347 347 347 348 350 351 353 354 354 355 355 356 357 358 358 359 359 359 359 359 358 357 357 356 356 356 356 356 357 357 357 358 358 358 357 358 358 359 360 362 363 363
317 318 318 319 319 320 321 322 322 323 324 325 325 326 327 327 328 329 329 329 330 330 329 329 331 334 335 335 336 336 336 335 335 334 332 333 334 336 338 340 342 344 346 347 345 344 347 350 352 353 353 353 354 354 355 356 357 358 359 359 360 360 361 360 359 358 358 357 357 356 356 357 357 357 357 358 357 357 357 358 359 360 361 362 363
317 317 317 318 318 319 320 320 321 322 323 323 324 325 327 327 327 328 329 329 329 329 329 329 331 333 334 334 334 335 336 336 335 334 334 335 337 339 341 342 342 343 345 346 345 342 343 347 352 352 353 353 353 354 355 356 357 358 359 359 359 360 360 361 360 360 359 358 358 358 358 357 358 358 358 358 358 358 357 357 358 359 360 361 361
316 317 317 317 318 318 319 320 320 321 321 322 323 324 325 325 325 326 326 327 327 328 329 330 330 330 331 332 334 335 336 336 336 336 337 338 339 341 342 343 343 343 343 344 344 342 341 345 349 352 353 353 353 354 355 356 357 358 358 358 359 359 359 360 360 360 360 359 358 358 358 358 358 358 358 359 359 359 358 358 358 358 359 359 359
317 317 317 317 317 317 318 318 319 320 320 321 322 323 323 324 324 325 326 326 327 328 329 329 329 329 329 331 334 334 334 334 336 338 340 341 341 342 342 342 343 343 343 343 344 344 343 344 347 350 352 353 353 354 355 355 356 357 358 358 358 358 358 358 359 360 361 361 360 359 358 358 358 359 359 360 360 360 360 360 359 358 358 359 359
318 318 317 317 317 317 317 318 318 318 319 319 320 321 322 323 324 324 325 326 326 327 327 328 328 328 328 330 332 332 333 335 338 341 342 343 344 344 344 343 342 342 343 345 346 346 346 346 347 349 351 352 352 353 354 355 356 356 356 357 358 356 356 357 358 359 360 362 362 361 360 359 358 359 359 360 360 361 360 361 361 360 360 359 359
317 317 317 317 317 317 317 317 317 317 317 317 318 319 320 321 323 324 325 325 326 326 326 327 328 329 330 331 332 332 334 338 341 342 343 345 346 346 346 346 344 343 344 346 347 348 349 348 348 349 350 352 353 354 355 356 357 357 357 357 357 356 356 357 357 357 359 360 362 362 362 361 360 360 360 360 360 360 361 361 361 360 360 360 359
316 317 317 316 316 316 316 316 316 316 316 317 317 317 318 319 321 322 323 324 325 326 326 327 328 329 330 330 331 333 336 339 340 341 342 344 345 345 345 345 344 344 345 346 347 349 351 351 351 351 351 352 352 353 354 357 358 359 358 355 353 354 356 356 356 357 357 358 360 361 362 362 362 362 362 361 360 360 360 360 361 361 360 360 360
315 316 317 317 316 316 316 316 316 316 317 317 317 318 318 319 319 320 320 321 322 324 324 324 325 326 328 330 331 334 337 337 337 337 338 338 339 340 340 341 342 343 344 346 347 350 352 353 353 353 353 353 353 353 355 358 358 358 356 350 348 351 355 356 355 356 357 357 359 360 361 362 362 360 358 357 356 356 356 356 357 357 357 357 358
314 315 316 316 316 316 316 316 316 316 316 317 317 318 318 319 319 320 321 321 322 322 323 323 323 325 327 329 331 332 333 334 334 334 334 334 335 335 337 339 341 342 344 345 346 348 350 352 353 354 354 355 355 356 357 357 356 356 354 350 349 352 355 354 354 355 356 356 357 358 359 361 360 357 355 354 354 354 354 354 354 353 353 353 354
313 314 315 315 316 316 316 317 317 317 317 317 317 318 319 320 321 321 322 322 322 323 324 324 325 325 326 328 329 329 330 330 331 332 332 333 334 334 335 337 338 340 342 343 344 345 346 348 349 350 351 351 351 351 351 352 351 351 350 350 350 352 353 352 352 353 354 355 356 357 358 360 359 358 357 356 355 354 354 354 353 352 352 352 352
312 313 313 314 315 316 316 316 317 317 317 317 318 319 320 321 321 322 322 323 323 324 325 325 326 327 327 328 328 328 328 329 330 331 332 333 334 335 336 337 338 339 339 340 340 340 339 339 339 340 341 342 343 343 344 344 344 344 344 345 347 350 352 351 350 351 352 353 356 357 358 358 359 358 356 354 353 352 352 353 352 352 352 352 351
310 311 311 312 314 315 316 316 316 317 317 317 318 319 319 320 320 321 321 322 323 323 324 325 326 326 327 327 327 327 327 328 329 331 332 332 332 333 334 334 334 334 334 334 334 333 332 331 332 332 333 334 335 337 338 338 338 337 338 340 344 347 349 348 348 348 349 350 352 354 354 354 355 356 355 354 354 352 351 352 352 351 351 352 352
308 309 310 311 312 313 314 315 316 317 317 318 318 318 319 319 320 320 320 321 322 322 323 324 325 325 325 326 326 326 327 327 328 328 328 327 327 327 328 328 327 327 328 329 329 328 327 326 326 327 328 329 330 331 332 333 333 333 333 334 337 340 342 343 344 344 345 346 348 349 350 351 352 353 353 354 353 351 350 351 351 351 350 351 351
307 307 308 309 310 311 312 313 314 315 317 318 318 318 318 319 320 320 320 320 320 321 322 324 324 325 325 325 325 326 326 326 325 325 324 323 322 322 322 321 321 322 322 322 322 323 323 323 323 323 324 325 326 327 329 330 329 329 328 329 331 333 335 337 338 340 342 344 345 345 346 348 350 351 352 352 351 350 350 350 350 350 350 350 350
305 306 306 307 308 309 310 311 312 313 314 316 317 318 318 319 320 320 319 319 319 320 321 323 323 324 324 323 323 323 323 322 321 321 320 319 318 318 316 316 316 315 315 315 316 317 317 318 319 320 320 321 322 323 325 327 327 327 327 326 327 328 331 333 336 337 339 341 342 342 343 343 344 346 347 347 348 348 349 348 348 348 349 349 349
304 305 306 307 308 308 309 310 311 312 313 314 315 316 317 317 318 318 318 319 319 319 320 320 321 321 320 320 319 319 318 317 318 317 316 315 315 314 312 312 311 311 311 311 312 312 313 314 315 316 317 317 318 319 320 323 324 325 325 325 324 325 327 330 333 335 336 337 338 340 341 341 342 343 343 343 344 345 347 347 347 347 347 347 348
304 305 306 306 307 308 309 310 310 311 312 313 313 314 315 316 317 317 317 318 318 318 318 318 318 317 316 315 315 314 314 314 314 313 313 312 311 310 309 309 308 308 308 308 309 309 310 310 311 312 312 313 313 314 315 317 320 321 323 323 324 324 324 325 328 331 332 332 332 333 334 335 337 338 339 340 341 341 342 343 344 345 345 346 346
304 304 305 306 306 307 308 308 309 310 311 311 312 313 313 314 315 315 315 315 315 315 315 314 314 313 312 312 311 311 311 311 310 310 309 309 308 308 307 306 306 306 306 306 306 306 307 307 308 308 308 309 309 309 310 312 314 317 319 321 322 322 322 322 324 327 328 328 328 329 330 331 332 334 335 337 338 339 339 340 340 340 341 341 342
303 303 304 304 304 305 305 306 307 308 308 309 310 310 311 312 312 312 312 312 312 312 311 311 310 309 309 309 308 308 308 308 308 307 307 306 305 305 305 304 304 304 304 304 304 304 304 304 305 305 305 305 305 306 306 307 309 311 314 317 318 319 319 320 322 325 326 327 327 327 329 330 332 333 334 334 335 335 335 336 336 336 336 337 337
Wind_Speed
18 18 20 20 20 21 21 22 22 21 20 21 20 20 20 19 18 17 17 17 16 15 14 14 14 14 14 13 13 13 14 14 13 13 13 12 11 10 10 11 11 10 9 9 8 8 9 9 9 9 9 9 8 8 8 8 8 8 8 7 7 8 8 8 8 8 9 9 8 9 9 8 7 5 5 6 6 6 8 8 9 13 13 10 9
17 15 15 18 20 22 22 22 22 22 21 21 21 20 20 20 20 19 18 18 18 17 16 16 15 15 14 14 14 14 15 15 14 14 14 14 13 11 11 12 12 11 10 10 9 8 8 9 9 10 10 10 10 9 9 10 11 12 11 10 9 10 12 12 10 8 9 9 9 9 9 8 8 7 6 6 8 9 10 8 8 10 10 8 9
18 17 15 14 15 18 22 22 21 23 22 21 21 20 20 20 20 20 19 18 19 19 18 18 17 17 16 15 15 15 16 16 15 14 15 15 14 13 12 13 13 12 11 11 10 10 9 9 9 9 10 11 11 10 10 11 11 11 12 14 14 13 13 13 12 10 9 10 10 10 10 10 9 7 7 9 10 10 10 9 8 8 8 8 10
18 19 20 19 16 18 20 24 22 22 23 22 22 21 20 20 21 20 19 18 19 19 19 19 20 19 18 17 17 16 16 17 16 15 15 15 15 14 13 13 13 13 12 12 12 11 11 11 10 10 10 10 11 10 11 11 12 11 10 10 11 11 10 10 10 10 10 11 11 11 11 11 11 10 10 11 11 10 11 11 9 8 8 8 10
16 17 19 22 20 21 23 22 24 23 22 21 22 23 21 20 20 21 19 18 19 20 20 20 20 22 21 19 18 18 17 17 17 16 16 16 16 15 14 14 14 14 14 13 13 13 13 12 12 11 11 11 11 11 12 12 12 12 11 10 10 10 10 10 10 10 11 12 13 12 12 12 12 12 12 11 11 10 10 10 10 10 10 8 8
12 15 16 18 22 22 25 24 21 23 23 22 20 21 21 21 20 20 20 19 19 19 21 21 20 22 23 21 20 20 19 18 18 18 17 16 17 16 15 15 15 15 15 14 14 14 14 14 13 13 13 13 13 13 13 13 13 13 13 12 12 11 12 13 14 14 13 13 14 14 13 13 13 13 12 12 12 12 11 11 11 12 11 9 7
8 10 12 14 17 20 21 21 19 15 15 19 21 20 20 20 20 21 21 20 19 18 20 22 22 22 23 23 21 21 22 20 20 20 19 17 17 17 17 16 16 16 16 15 15 15 15 15 15 15 15 16 15 15 14 14 14 14 14 14 13 13 13 13 14 14 14 14 14 14 15 15 14 15 13 11 12 12 11 12 13 12 9 7 7
2 2 4 7 12 14 14 14 16 18 14 11 14 17 19 19 19 21 22 21 20 20 19 21 22 22 21 22 22 21 22 23 21 21 21 20 18 18 18 18 18 17 17 17 16 16 17 16 16 17 18 18 17 17 16 16 15 15 16 15 15 14 15 15 14 14 14 15 15 14 15 15 14 14 12 11 12 13 13 14 15 13 8 7 8
11 10 8 4 7 12 13 14 17 19 15 11 10 10 14 18 18 18 21 22 21 19 19 20 21 22 21 21 22 21 21 22 23 23 23 22 21 19 19 20 19 19 19 19 18 18 18 17 17 18 19 20 20 20 18 17 17 17 16 16 16 16 16 16 16 15 15 14 14 14 14 14 14 14 14 15 16 17 16 14 14 12 10 10 11
14 12 11 8 3 1 3 7 12 15 16 16 13 9 9 10 11 10 12 17 20 20 20 19 19 21 22 22 22 22 21 22 23 24 24 24 24 22 21 20 20 21 20 20 20 20 19 19 18 18 19 20 22 22 22 20 19 19 18 17 16 17 18 17 16 16 16 15 14 14 14 15 15 15 16 17 18 18 17 16 17 16 12 10 10
13 11 11 9 7 6 6 4 1 4 7 10 12 11 10 8 8 8 7 8 11 14 18 20 20 19 21 23 23 22 22 22 24 26 26 26 25 24 24 23 22 23 23 22 21 21 20 20 20 19 20 20 21 22 23 23 22 22 22 20 19 18 17 17 17 17 17 16 16 15 14 15 16 16 17 16 15 15 14 12 12 12 9 7 8
11 10 12 13 10 9 8 9 8 6 4 2 2 6 10 11 13 12 9 9 10 10 13 17 20 21 20 21 22 23 24 23 24 27 29 29 28 27 26 25 24 24 24 25 24 23 23 22 22 21 20 21 22 23 24 24 24 24 25 25 25 23 21 20 19 18 18 17 17 17 17 17 17 17 16 15 14 14 12 11 9 8 9 9 11
13 12 13 14 12 11 11 10 10 9 8 7 5 4 6 9 12 13 14 13 13 14 15 15 17 21 23 23 22 22 24 26 26 28 30 31 32 31 29 26 26 25 25 26 26 26 25 25 24 23 22 22 22 24 26 27 27 27 28 28 28 28 28 27 26 24 22 20 19 19 19 18 18 19 18 17 16 15 14 14 14 14 13 13 15
14 14 15 15 14 14 13 11 10 9 8 9 9 9 8 7 10 12 14 14 15 17 19 19 18 19 22 26 26 24 23 25 27 29 31 32 33 35 34 31 28 27 27 26 27 27 27 27 27 27 26 25 24 23 24 27 28 29 29 30 30 29 29 30 30 31 30 29 27 27 26 24 22 22 21 19 18 17 16 16 17 16 17 17 18
13 13 14 15 15 15 14 11 8 7 7 8 9 9 8 7 9 11 14 15 15 17 19 21 23 22 21 23 26 27 26 25 25 27 30 33 34 35 37 35 31 29 29 28 27 26 27 27 28 29 29 28 28 26 24 23 25 27 28 29 29 30 30 31 31 32 34 35 36 36 36 33 31 29 27 24 22 22 21 21 21 20 19 19 19
13 13 14 15 15 15 13 10 8 8 8 7 7 8 7 7 8 10 12 14 16 19 21 22 25 27 25 24 25 27 28 27 28 28 27 30 33 36 38 38 36 32 30 30 29 29 28 28 27 28 28 29 29 29 27 25 23 24 24 25 25 26 28 29 29 29 31 34 37 38 39 38 37 37 35 32 29 26 23 22 22 22 21 19 19
12 12 13 14 15 14 12 10 10 9 9 8 8 7 6 7 8 10 12 14 15 19 21 22 23 24 26 26 25 26 27 27 29 30 30 29 31 35 38 38 36 34 32 31 30 30 30 31 30 29 29 29 28 28 28 28 27 26 24 23 23 23 23 24 24 24 25 27 30 32 33 34 35 36 37 36 34 30 25 21 20 20 20 17 16
12 11 11 10 11 12 12 12 11 10 9 9 10 10 9 7 8 10 12 13 15 16 17 18 19 20 22 24 25 26 27 28 28 30 31 31 31 34 37 37 34 33 32 31 31 31 31 31 32 33 33 32 31 29 27 27 29 30 28 25 24 24 23 22 21 22 23 24 26 28 30 30 30 32 33 34 34 32 30 28 25 22 19 18 17
11 11 10 8 8 9 10 9 10 10 9 10 11 11 11 9 8 10 11 13 15 16 16 16 17 18 20 22 23 24 26 28 29 30 31 32 32 33 34 35 33 32 31 30 29 30 31 31 32 33 35 35 35 33 30 28 28 30 29 27 26 27 26 24 23 23 23 23 25 27 30 31 31 31 31 31 32 32 32 33 31 27 23 22 21
11 11 11 10 9 9 7 7 9 10 10 11 11 11 12 11 10 10 11 12 14 16 17 17 18 19 20 21 23 24 26 26 26 27 29 30 32 35 34 33 32 32 30 28 28 27 28 30 32 33 35 36 37 37 35 33 32 31 29 28 28 29 27 24 24 25 24 24 23 24 26 28 30 33 33 32 32 32 32 34 33 31 28 27 26
11 12 11 11 10 10 9 9 11 12 12 13 11 10 11 12 13 13 12 12 13 15 17 18 19 21 22 25 29 29 26 24 22 23 26 26 26 29 32 31 31 31 30 28 27 27 27 27 29 31 33 35 36 37 38 38 37 35 33 33 34 32 27 24 24 24 23 24 22 21 21 23 26 30 31 32 33 33 33 33 34 35 34 32 30
10 11 12 11 10 11 10 10 11 12 13 15 14 13 12 13 14 14 13 13 14 15 16 17 19 20 22 27 30 27 23 22 21 22 25 26 25 25 28 32 32 30 29 29 27 27 27 27 28 28 30 31 33 34 36 38 39 40 39 39 39 36 31 28 27 25 24 23 22 20 19 19 21 25 27 28 29 29 30 31 31 33 34 35 35
11 11 10 10 9 10 10 11 11 11 12 13 15 16 16 15 16 15 14 15 15 15 16 17 19 21 22 25 26 23 22 22 22 23 26 28 26 23 24 33 37 33 29 27 27 26 26 25 26 28 28 29 30 31 32 34 37 39 40 40 40 39 36 33 30 28 27 25 24 24 23 21 21 22 23 25 25 26 27 28 29 30 31 32 34
11 10 9 10 10 11 10 11 11 11 12 13 13 15 16 16 17 18 17 17 17 16 16 17 17 20 22 22 22 20 21 23 25 26 25 24 23 23 24 28 33 34 31 27 25 23 21 20 22 24 26 27 27 28 30 32 34 35 36 37 37 38 39 37 34 31 28 26 26 26 27 26 26 25 24 24 24 24 25 27 28 30 31 32 34
10 10 11 11 12 12 11 11 11 12 13 13 14 14 14 15 17 19 19 17 15 15 16 16 16 17 19 19 18 19 21 24 23 21 19 20 23 26 26 24 24 27 31 34 33 27 22 21 21 21 23 24 25 25 27 30 33 35 35 35 35 37 39 39 36 32 28 28 28 28 29 30 31 31 31 28 26 25 25 26 27 28 29 31 33
11 11 12 12 12 12 12 12 12 13 14 15 16 16 16 17 18 19 18 16 14 14 15 15 13 12 11 12 15 18 20 22 20 18 19 21 23 23 22 21 20 21 24 30 36 36 33 30 26 23 23 24 25 27 27 27 29 32 35 36 37 38 39 38 36 33 31 31 30 30 31 31 30 31 32 32 32 32 30 29 29 29 28 27 29
11 11 12 13 13 13 13 13 14 14 15 15 16 16 17 18 16 14 12 12 12 13 12 11 11 11 13 14 17 17 17 17 17 16 15 16 18 19 19 19 19 19 19 20 24 31 35 36 35 33 31 30 31 32 32 31 30 30 32 35 38 40 40 38 37 35 34 33 32 31 31 29 28 29 30 31 33 35 34 32 31 30 29 26 26
12 12 13 13 14 14 14 14 14 15 14 14 14 15 16 15 13 11 11 12 13 14 12 12 14 15 17 19 20 19 18 17 15 13 11 14 17 18 17 14 14 13 13 12 13 17 23 29 33 34 34 35 37 38 36 35 35 34 34 35 36 37 38 38 37 36 35 34 31 30 28 27 28 29 29 30 32 32 32 33 33 32 30 28 25
13 13 13 13 13 13 13 13 13 13 13 14 14 14 15 14 13 14 14 14 14 14 15 18 21 21 22 21 19 19 19 18 16 18 20 23 24 23 21 18 16 14 13 13 13 14 18 23 26 25 25 28 33 35 35 35 34 33 35 36 36 36 37 38 38 38 37 35 32 30 28 28 29 30 30 31 32 31 30 31 32 32 31 29 28
14 13 13 13 13 13 13 14 15 16 17 18 18 17 17 17 19 21 21 20 20 21 24 26 26 23 24 24 21 18 19 21 22 25 28 29 28 27 26 25 24 24 24 22 20 20 22 22 22 19 18 21 25 28 31 32 32 31 30 31 33 34 36 37 39 39 37 34 33 32 30 29 29 30 30 31 32 31 30 30 31 31 30 30 30
15 14 13 13 14 14 14 15 15 16 17 18 19 20 21 23 25 26 27 27 27 27 26 26 23 19 20 23 23 21 22 23 25 26 27 27 28 28 28 28 29 29 28 25 25 27 26 23 22 20 19 21 24 26 27 28 29 29 27 27 28 31 32 33 36 37 36 34 33 32 31 30 30 30 31 31 31 30 30 30 31 31 31 31 31
16 16 15 15 15 15 14 15 16 17 17 18 19 19 21 22 23 23 23 23 23 22 21 21 20 19 20 23 24 24 24 24 24 24 23 23 24 25 26 27 28 27 24 23 27 30 28 25 25 25 24 26 28 29 27 27 27 27 26 26 26 28 29 31 32 33 34 34 33 31 29 30 31 32 32 31 30 29 29 30 30 30 31 32 32
18 18 18 17 17 16 16 16 17 18 18 18 18 19 19 20 20 21 21 20 20 21 22 23 22 21 20 21 22 23 23 22 22 22 22 21 21 22 23 24 25 25 24 25 29 31 29 27 28 29 29 30 32 31 29 29 29 28 28 28 27 25 26 29 32 33 33 32 31 30 30 30 32 32 31 31 31 31 30 30 30 30 30 30 31
21 20 20 20 20 19 18 17 17 17 17 18 18 19 19 19 20 21 21 20 20 21 21 20 20 19 19 20 21 21 20 20 21 23 22 20 20 20 22 24 24 24 25 28 30 31 29 29 30 31 31 32 32 30 28 28 29 29 29 28 26 24 23 24 27 31 34 34 31 30 30 30 31 31 30 30 30 31 31 31 31 30 29 29 29
22 22 22 21 21 20 19 17 17 17 18 19 19 19 20 21 21 21 21 21 21 21 21 20 20 20 21 22 21 19 19 21 22 22 21 20 20 21 22 24 26 26 27 28 30 31 31 29 30 31 31 31 32 30 28 27 27 28 27 26 25 25 24 24 25 27 29 31 32 32 32 31 30 30 30 30 30 29 29 30 31 31 31 30 29
22 23 22 21 21 20 19 19 18 18 19 20 20 20 21 21 21 21 21 22 22 21 22 21 21 21 22 22 21 20 22 23 22 21 19 19 20 21 23 24 24 24 25 25 26 29 32 32 31 32 32 32 31 30 27 26 27 27 27 27 25 22 22 25 30 31 29 28 31 33 33 32 32 32 31 30 31 31 31 31 31 31 31 31 30
21 22 22 22 21 21 20 20 20 20 21 22 22 22 22 21 21 21 21 21 22 22 22 23 23 24 24 23 22 22 23 22 20 19 20 19 20 22 24 24 24 23 23 24 23 25 30 32 31 31 32 33 31 29 27 26 27 28 29 28 25 22 24 32 37 36 32 30 31 32 33 34 35 35 34 32 31 31 31 31 31 31 32 33 32
21 21 21 21 22 21 21 22 22 23 23 23 23 23 23 23 22 21 21 21 21 22 22 23 23 22 21 20 19 20 20 18 15 15 17 18 20 21 23 24 24 24 26 27 26 25 30 33 31 29 30 31 30 28 27 25 26 27 26 24 22 23 30 37 40 38 34 32 30 30 31 33 34 35 35 34 33 32 30 30 29 29 30 31 31
22 22 21 22 22 21 20 21 23 24 23 23 23 24 24 24 23 21 21 20 20 20 21 21 22 21 20 20 19 18 16 14 13 12 12 13 13 15 17 21 24 26 28 30 27 25 28 33 32 29 29 30 30 29 27 26 26 23 18 13 12 18 27 32 33 33 34 34 33 31 29 30 32 33 33 33 33 32 30 29 29 28 28 29 30
21 22 21 22 22 21 20 21 22 22 22 22 23 23 24 24 24 24 23 23 22 22 22 22 23 23 22 21 19 16 12 11 11 12 13 13 14 15 17 20 23 25 27 28 26 24 25 28 29 28 28 29 30 29 27 26 25 21 15 10 11 19 27 30 28 28 31 33 33 32 30 29 28 26 25 25 25 25 24 24 26 27 27 29 31
22 21 21 21 22 22 22 22 23 23 22 22 23 23 24 24 24 24 23 23 24 24 24 24 25 25 23 21 19 15 12 11 12 14 16 17 18 19 20 21 23 24 24 25 25 25 24 25 26 25 24 23 23 22 21 20 19 16 12 13 15 23 34 36 30 28 31 33 31 31 30 29 27 26 27 29 30 29 28 28 28 28 29 32 35
22 21 20 21 21 21 22 22 23 24 25 24 23 23 23 23 23 23 23 23 23 23 23 23 23 23 22 21 20 18 17 16 16 17 18 19 19 20 21 22 23 23 23 23 22 21 19 19 19 18 17 16 17 17 17 18 17 13 6 10 13 22 34 36 29 24 26 28 29 30 30 30 30 32 34 35 33 31 29 27 26 26 28 31 33
22 22 22 21 21 21 22 22 21 22 24 25 25 25 24 25 25 25 25 25 25 24 24 23 23 22 22 22 22 22 21 20 19 19 19 18 18 18 18 19 19 19 19 19 18 19 20 21 20 17 16 17 18 20 21 21 19 15 8 6 10 19 27 29 25 22 22 23 25 27 27 26 27 29 31 32 31 28 26 25 26 28 28 28 29
23 23 23 22 21 20 21 22 22 23 25 27 28 27 27 26 26 25 26 27 28 27 26 25 24 23 23 23 22 21 20 19 18 17 15 14 14 16 16 15 16 19 21 23 23 25 27 28 26 23 22 21 20 20 22 22 21 18 12 8 11 17 23 27 27 25 22 22 23 23 22 22 23 26 29 32 30 27 25 25 26 26 24 23 25
23 23 23 23 22 22 22 22 23 23 24 25 25 24 24 23 23 23 23 25 27 27 25 24 23 22 21 20 19 19 18 17 15 13 12 12 15 17 19 20 21 24 26 29 30 32 33 32 30 27 27 26 25 24 24 23 23 22 19 15 14 17 22 27 28 27 25 26 26 23 21 20 20 22 26 28 25 22 22 23 24 23 22 23 27
23 23 23 23 23 23 23 22 22 22 22 22 22 22 22 21 20 21 22 24 27 28 26 22 19 18 18 18 18 18 17 15 13 12 12 13 15 17 19 22 25 28 30 32 33 34 34 34 32 30 29 30 30 29 29 27 25 23 22 21 21 21 23 26 27 27 28 29 28 26 24 23 21 21 23 24 23 21 21 22 22 22 22 25 29
23 23 23 23 23 23 23 22 22 22 22 21 22 23 23 22 20 21 23 23 25 27 26 21 16 13 12 13 14 13 12 13 14 14 14 15 16 17 18 20 24 28 30 30 30 30 29 30 30 29 28 28 28 29 29 29 27 25 23 22 22 23 26 28 28 28 28 28 28 27 27 26 27 28 29 28 27 26 25 24 24 24 25 27 29
21 21 21 21 22 23 22 22 22 22 22 21 22 23 23 22 21 22 22 21 21 22 22 18 13 9 9 9 10 11 12 13 14 15 14 15 16 17 18 20 24 27 28 27 26 25 24 26 26 26 25 25 24 24 26 26 26 26 25 22 22 22 25 27 28 27 27 27 27 27 28 29 31 33 33 31 29 27 26 26 26 27 28 28 28
19 20 20 20 21 22 22 22 22 22 22 22 23 23 22 20 19 18 18 17 17 16 15 12 9 9 9 9 10 11 13 13 14 14 14 15 17 18 19 21 23 23 22 22 22 22 21 22 22 21 21 20 20 20 21 22 22 22 22 22 22 22 23 23 24 24 24 24 24 24 24 26 28 31 31 31 29 27 26 26 27 27 27 26 25
17 18 18 19 19 20 21 22 22 22 22 22 22 21 20 18 16 15 15 14 13 12 10 9 9 9 9 9 10 11 12 13 14 15 15 16 17 18 18 19 19 18 17 18 18 18 18 18 17 16 16 16 16 15 16 16 16 17 18 18 19 20 19 19 19 19 19 19 20 20 20 21 23 24 25 26 25 23 22 22 22 21 21 21 19
16 17 17 18 19 20 21 21 21 21 20 20 19 18 17 15 14 14 13 13 12 11 10 9 9 9 8 8 10 11 12 13 14 14 13 13 15 15 16 16 16 16 15 15 15 14 14 14 13 13 12 12 11 12 12 12 12 13 14 14 14 14 15 15 15 14 14 13 13 15 16 18 19 19 18 18 17 16 15 14 13 13 13 12 11
Wind_Direction
204 199 197 199 198 195 197 200 199 200 200 197 197 197 196 196 196 197 194 194 196 194 193 195 195 195 196 197 198 198 198 200 203 204 205 206 213 219 215 209 209 214 217 220 218 209 206 212 217 220 225 231 236 241 244 241 228 227 240 241 221 221 229 228 239 267 282 290 298 296 300 316 314 292 284 299 297 289 306 312 298 290 280 271 286
211 214 209 208 206 199 198 201 199 200 202 200 200 200 198 197 197 198 196 195 196 196 196 199 200 199 201 202 202 201 201 202 204 206 206 207 210 214 215 213 212 215 219 223 224 223 216 214 218 222 223 227 232 234 240 238 226 220 226 232 230 230 231 227 226 246 270 279 285 286 287 292 291 285 288 295 292 290 295 302 310 299 275 266 291
210 219 219 221 222 211 201 201 202 200 201 202 203 202 200 199 198 199 199 197 198 199 198 199 201 202 203 204 204 204 204 203 206 210 210 210 211 211 214 213 213 215 219 223 225 226 227 223 223 225 225 227 228 230 239 246 242 231 222 218 220 229 233 228 225 234 254 269 278 284 288 292 297 297 295 295 293 291 294 297 303 305 292 282 286
214 214 212 212 232 246 224 203 201 204 202 202 204 203 202 200 199 201 203 201 200 201 201 201 201 203 205 205 205 205 205 203 206 214 215 213 213 215 217 216 216 218 220 223 225 225 227 229 228 228 231 231 227 229 237 245 254 259 253 235 225 231 236 233 232 236 246 262 273 277 283 289 293 291 289 290 289 288 292 292 288 292 297 290 284
221 216 213 207 218 254 255 224 204 204 206 205 204 205 204 201 199 202 205 207 203 201 203 204 203 204 205 207 207 207 207 205 206 212 214 214 215 218 220 220 220 222 223 225 227 227 229 231 230 229 233 235 232 232 237 240 245 254 260 259 253 252 251 251 256 258 253 258 267 273 277 280 283 286 286 283 282 284 288 289 288 290 288 279 276
226 224 225 215 206 226 253 251 226 208 206 208 207 205 207 205 201 201 205 210 209 204 203 204 206 206 206 208 210 209 210 210 209 211 213 214 214 215 219 222 222 225 227 228 229 230 230 231 233 232 231 234 234 233 234 235 239 244 249 251 250 250 248 246 249 254 256 259 265 271 274 275 276 280 281 278 276 278 282 285 291 295 288 268 260
231 235 232 230 217 218 240 260 265 255 231 218 213 208 208 209 206 204 205 209 214 212 205 203 207 209 208 208 212 212 212 213 214 214 215 217 216 214 216 220 222 225 228 230 230 231 232 232 233 234 232 232 234 236 236 235 235 238 243 246 247 246 247 246 243 243 248 256 261 265 268 271 272 273 275 276 273 272 273 279 287 293 286 262 253
20 303 240 243 248 247 246 250 270 285 287 270 242 222 214 214 213 208 203 205 213 218 213 206 204 209 212 211 212 214 214 214 216 218 218 221 222 218 217 220 222 224 226 229 231 231 232 233 232 232 233 232 231 232 234 236 236 236 239 242 244 245 247 248 250 249 246 248 253 259 264 268 270 272 276 280 276 271 268 269 273 273 270 270 277
48 61 79 120 225 248 247 238 245 252 256 269 276 256 235 226 223 218 207 203 208 217 223 217 206 204 211 215 215 216 217 215 216 217 217 220 223 223 222 223 225 227 227 228 231 232 233 235 235 235 233 232 231 231 231 232 233 235 238 240 239 241 243 245 248 253 255 253 254 258 263 267 269 269 267 265 265 264 261 258 257 257 266 277 281
47 63 79 88 106 205 209 223 242 242 231 229 238 267 273 241 239 253 233 215 212 212 220 227 218 207 207 212 216 218 220 220 218 217 216 217 220 223 226 226 226 229 232 232 233 235 235 236 239 241 240 238 236 234 233 232 232 233 236 237 235 236 238 240 242 247 254 256 257 258 260 263 265 264 261 260 261 259 255 252 249 249 256 265 269
41 48 60 57 33 25 60 91 207 253 241 231 233 261 281 259 252 281 292 275 251 227 222 229 231 223 212 209 214 219 223 225 222 220 219 218 219 221 225 229 229 229 232 235 238 239 240 242 243 245 246 246 244 241 238 237 236 237 237 236 234 234 235 236 238 241 246 251 254 254 255 258 261 263 265 268 271 269 267 264 252 242 241 251 265
27 23 36 44 36 16 21 35 35 27 4 345 255 259 262 251 245 244 250 277 281 260 242 235 235 238 231 219 216 218 223 228 227 224 221 219 221 222 224 228 231 231 231 233 236 240 242 245 247 247 248 248 246 243 240 240 241 243 244 243 241 239 237 236 237 237 238 243 247 249 250 255 260 262 263 268 274 276 277 277 272 266 266 263 258
28 19 24 35 37 29 25 19 17 20 9 358 356 321 281 260 252 246 242 247 249 249 250 243 237 240 242 238 232 225 224 226 228 228 226 223 223 222 223 226 229 231 232 232 233 236 239 242 244 247 248 250 249 244 239 239 242 244 247 249 248 247 244 242 242 242 241 241 245 248 247 250 255 258 258 262 268 274 274 273 274 274 271 266 261
36 30 29 32 30 26 27 16 2 2 356 338 330 331 324 290 265 261 258 256 255 253 251 248 245 244 245 246 246 245 241 234 230 228 227 226 226 224 224 225 227 230 233 233 233 233 235 238 240 243 246 248 251 251 244 239 239 241 244 246 249 251 251 249 247 246 244 243 244 248 248 247 249 252 253 254 258 263 266 266 268 269 269 269 269
44 35 31 33 28 24 28 25 8 355 348 337 330 330 326 298 270 262 260 260 263 264 260 255 254 254 253 250 249 251 252 249 245 238 230 227 227 226 225 225 227 231 234 236 237 236 236 236 237 240 243 244 246 249 250 245 240 239 240 243 247 250 252 253 252 250 247 246 245 247 250 251 250 250 252 252 254 258 262 264 266 268 270 270 269
50 41 31 29 28 25 25 27 21 14 7 357 349 342 326 299 274 261 261 263 261 260 258 254 250 248 248 249 249 249 248 249 251 251 243 234 228 227 226 225 226 230 233 237 240 241 242 241 240 240 241 242 243 244 246 247 243 238 237 239 244 249 253 257 259 258 255 252 251 252 255 257 256 255 255 255 255 258 262 265 264 260 261 265 265
49 45 34 25 22 20 16 16 19 20 13 2 0 360 341 311 291 277 273 270 264 261 259 257 254 251 249 250 252 251 248 247 247 249 249 243 234 228 226 225 226 229 233 236 239 242 244 244 244 244 243 243 244 244 243 243 244 243 241 240 241 245 251 257 262 264 264 260 258 258 259 261 261 260 259 258 257 257 258 259 257 251 250 254 255
41 41 38 28 21 15 12 13 14 13 7 355 353 355 349 335 322 309 295 282 274 271 268 264 262 260 257 256 256 256 254 252 250 248 246 244 240 233 228 225 227 231 234 237 240 241 244 245 244 244 245 245 245 245 245 243 242 243 244 244 244 244 247 252 257 263 265 264 261 259 258 259 260 260 260 259 257 255 253 253 253 250 248 249 251
30 28 24 20 18 12 9 9 5 2 358 348 346 350 345 334 329 329 318 296 282 276 273 271 269 266 265 264 262 261 259 257 255 254 251 247 242 236 230 226 227 231 235 239 241 243 245 246 245 244 245 245 245 245 245 244 244 244 244 244 245 246 248 250 253 257 261 262 260 256 254 255 256 256 257 257 256 254 251 251 251 250 250 252 256
20 17 11 4 4 2 356 353 351 354 354 346 341 342 338 330 326 330 325 307 292 284 279 279 280 278 277 277 275 273 268 265 265 266 265 260 248 237 228 224 226 230 235 238 241 245 246 247 247 247 246 245 245 245 244 244 245 245 244 243 244 246 248 249 251 254 258 262 264 261 258 256 254 252 252 252 253 252 251 250 250 248 248 250 253
7 4 357 352 354 352 347 342 341 344 348 345 336 326 327 329 326 324 320 312 303 295 291 290 289 288 286 284 285 285 285 289 295 293 289 287 272 249 234 229 230 232 234 237 241 244 246 246 247 248 248 247 247 246 245 244 244 244 243 243 245 247 247 246 248 252 255 260 265 266 262 256 251 249 249 250 250 250 251 251 250 248 246 246 248
354 351 344 342 345 344 342 339 334 332 333 334 330 320 316 320 321 318 314 310 304 297 296 296 292 290 287 282 281 286 292 301 310 308 297 290 282 265 247 239 238 235 234 236 238 241 245 247 246 248 250 250 248 247 246 245 244 244 244 246 248 249 247 246 247 250 253 258 262 264 262 253 243 240 240 242 245 247 249 250 251 251 248 246 246
338 337 335 336 337 333 332 329 323 319 316 317 319 318 315 315 316 313 307 305 304 299 296 293 288 285 284 280 280 283 285 284 286 289 285 279 278 279 267 253 245 239 238 240 239 239 242 247 249 249 250 252 253 250 248 246 244 244 246 248 249 249 248 247 247 249 252 255 257 258 258 254 247 240 235 235 238 241 242 245 248 251 251 250 248
330 331 331 331 327 321 317 313 308 306 305 302 302 303 306 308 309 308 304 301 302 300 296 292 286 282 282 285 286 282 276 274 273 275 280 284 287 289 284 269 253 243 241 246 249 251 253 259 263 260 253 252 255 256 253 249 246 246 246 247 248 249 248 247 247 248 249 251 252 253 253 252 251 249 245 242 242 243 244 245 246 248 251 254 253
327 326 323 318 314 310 307 305 304 301 300 299 293 290 292 293 295 298 298 294 290 289 290 288 281 276 278 283 287 286 284 283 282 280 283 289 287 282 280 279 270 254 245 244 247 253 260 264 270 277 273 264 260 260 258 253 249 247 247 246 246 245 245 245 245 246 246 247 248 249 251 250 249 249 249 249 250 250 250 250 250 251 253 256 255
323 319 317 313 310 309 305 302 301 298 296 293 287 281 278 274 273 276 279 281 282 284 289 295 298 298 299 292 287 290 294 291 286 284 285 284 284 285 284 282 280 275 264 254 248 248 251 252 254 266 280 284 278 270 264 260 256 252 248 245 243 242 241 241 241 241 241 242 243 244 246 249 250 250 249 248 249 250 249 251 253 254 254 254 251
321 317 315 311 307 303 297 293 293 292 291 288 284 281 277 271 265 266 274 285 293 295 302 319 335 341 340 325 308 304 310 307 296 291 292 291 291 293 291 286 284 287 288 280 264 256 255 256 256 258 265 276 280 276 269 266 265 260 253 247 243 240 239 239 238 238 239 240 242 243 244 245 247 248 247 245 245 246 246 247 248 249 249 250 247
320 316 310 306 301 296 290 286 283 281 281 282 281 283 285 284 283 286 292 295 298 301 309 320 324 321 315 310 307 308 315 318 313 305 310 316 312 306 302 299 296 293 292 294 286 268 259 258 259 261 263 267 269 269 266 263 262 259 255 250 245 242 240 239 238 238 238 239 241 243 243 242 242 242 242 242 242 243 242 241 242 243 244 246 246
320 315 310 306 303 301 299 296 294 295 297 297 293 288 287 291 294 295 292 288 287 292 296 298 301 301 296 291 293 297 299 301 297 292 295 302 307 308 306 299 292 286 284 287 283 271 260 256 257 260 263 263 261 259 258 257 257 254 251 248 246 243 241 237 235 235 237 237 238 239 239 239 239 240 240 240 241 241 239 237 237 238 238 239 241
319 316 314 312 310 312 312 310 311 313 312 308 306 301 294 291 293 294 293 290 286 285 287 288 288 288 286 283 283 284 285 287 288 289 289 291 294 297 297 293 287 281 279 280 277 267 261 260 260 261 260 258 257 255 253 253 252 250 247 244 240 238 238 237 235 235 236 235 235 237 239 240 241 240 239 239 240 240 238 236 235 233 231 231 235
316 314 313 312 312 314 311 306 305 305 301 298 298 298 293 288 286 286 285 285 284 283 282 283 282 279 279 281 281 278 278 283 289 293 292 289 287 286 285 283 281 278 278 279 273 264 257 254 255 255 251 251 255 256 254 252 251 248 245 243 237 233 232 233 234 234 235 234 235 235 236 238 241 242 240 240 241 240 238 236 234 230 228 228 231
312 311 310 309 311 311 308 306 305 302 299 295 291 289 288 285 283 284 284 285 287 288 286 284 281 277 276 278 278 278 280 285 291 294 295 291 287 282 280 277 275 275 277 274 266 259 253 246 245 246 244 246 251 252 252 254 255 251 247 245 242 236 231 231 234 233 231 229 229 229 231 234 238 241 242 242 241 240 238 235 233 229 228 229 231
309 306 305 304 304 303 301 301 301 298 295 293 290 287 285 283 285 289 290 289 289 288 286 283 279 277 276 276 275 276 281 288 293 295 296 293 286 279 278 277 274 272 273 269 262 257 251 244 243 243 243 246 250 251 249 250 253 254 250 248 247 243 237 237 237 233 227 224 221 221 225 230 234 238 241 241 241 241 240 237 235 232 230 230 232
307 304 302 300 298 296 293 292 292 292 289 288 289 289 286 285 288 290 291 292 292 289 285 283 282 281 280 279 276 274 277 285 293 296 294 289 282 278 278 277 273 269 268 267 264 260 254 247 246 247 246 247 250 251 249 247 249 252 253 252 253 253 253 254 248 234 224 221 220 220 223 226 229 232 235 237 239 240 239 238 237 235 234 234 234
304 301 300 299 297 295 292 289 289 290 289 288 287 285 284 285 286 286 286 289 290 291 289 286 284 284 284 282 278 276 278 284 290 292 289 284 280 278 278 276 273 269 267 266 266 264 259 254 253 254 253 251 251 250 246 245 247 250 253 255 255 255 258 264 265 252 234 225 224 225 226 226 227 229 231 232 234 236 237 237 237 236 237 237 237
303 301 299 299 298 297 296 297 296 294 293 293 291 288 286 285 284 283 283 283 283 285 287 287 286 287 286 282 279 280 282 284 285 284 282 281 278 275 271 269 269 268 267 266 267 267 265 262 260 260 260 259 256 254 250 248 248 250 253 255 255 256 257 259 261 261 254 241 233 230 228 228 229 230 231 232 232 232 234 235 236 236 237 238 238
302 300 298 297 297 296 298 299 299 296 295 294 292 289 286 282 280 278 279 279 280 282 284 286 287 285 281 277 276 278 279 279 279 279 276 272 268 266 265 264 264 265 267 268 267 267 268 267 265 263 264 264 262 259 257 253 251 250 252 254 253 254 255 253 251 252 253 248 241 233 229 228 230 231 232 234 234 234 234 233 234 236 237 237 238
302 299 296 295 295 294 294 294 293 291 290 288 286 284 283 281 279 276 275 274 274 275 277 279 279 277 275 276 278 279 277 276 275 274 272 267 263 263 267 269 268 267 269 270 269 266 267 270 269 267 266 267 264 261 259 258 256 251 246 243 243 246 250 250 249 249 250 250 246 239 233 231 231 231 232 234 236 237 237 235 235 237 238 238 238
305 303 299 296 293 290 289 288 287 286 285 282 280 278 278 278 279 279 278 278 276 274 276 278 278 277 278 282 283 280 277 276 278 280 281 280 276 273 275 277 276 275 274 273 271 266 266 269 271 270 270 271 271 268 264 261 258 251 238 228 240 257 260 257 252 251 251 251 250 248 244 240 238 236 235 236 238 240 240 241 241 242 244 244 242
304 302 301 299 296 292 289 286 285 284 282 281 280 278 275 274 274 274 274 275 275 275 274 275 276 277 277 278 279 279 277 278 283 289 292 290 286 282 279 276 275 275 274 273 271 268 267 269 271 271 272 273 273 272 268 262 260 259 255 252 261 268 268 264 258 254 254 254 253 254 254 252 251 252 255 259 262 264 264 262 259 260 261 261 258
301 299 299 298 297 295 291 286 283 281 279 279 279 277 273 271 269 269 269 269 270 271 270 269 269 271 272 274 277 283 287 286 283 283 283 282 279 276 274 272 273 273 273 274 275 276 276 275 274 275 277 277 278 279 280 279 281 282 264 241 243 261 268 268 264 258 256 255 255 256 258 260 261 265 267 266 266 266 266 263 262 265 268 269 268
301 301 301 298 295 292 289 286 286 287 285 281 275 273 273 274 272 272 273 273 272 271 270 269 269 270 272 275 280 286 291 290 286 281 276 273 269 267 266 268 271 275 277 281 286 291 294 294 292 291 292 293 295 299 299 298 304 309 272 214 229 260 267 266 264 262 261 259 258 258 258 260 261 261 260 258 258 260 261 259 257 259 260 263 268
302 302 301 299 294 289 285 284 286 289 287 282 277 277 282 284 282 279 277 277 277 278 279 279 279 280 281 281 281 282 283 281 277 273 270 268 267 265 264 266 272 280 284 288 294 301 305 307 309 309 307 305 303 305 304 302 304 310 299 241 246 263 265 264 269 275 274 270 268 266 265 265 264 261 260 259 259 261 262 261 259 258 257 261 268
302 301 300 299 297 294 291 288 287 289 289 285 281 281 281 281 281 280 277 275 274 274 275 276 277 277 277 276 274 274 273 273 274 275 281 288 290 287 286 291 296 295 290 288 291 296 299 302 305 307 307 306 306 305 305 305 304 305 300 270 244 248 257 266 275 278 275 271 271 274 279 280 276 269 265 262 259 259 260 261 263 265 266 267 266
302 300 300 298 297 296 295 291 288 288 288 284 280 278 278 278 278 280 280 278 275 272 269 270 273 273 273 275 277 277 278 281 288 295 302 306 301 297 297 299 297 292 288 288 291 294 295 296 297 297 297 299 299 298 298 300 300 301 300 290 263 249 253 261 268 271 271 270 269 271 277 281 280 275 271 266 261 257 258 261 265 267 267 266 262
303 300 299 297 295 293 293 293 292 291 290 285 281 280 279 277 278 280 282 284 283 278 271 266 268 271 273 276 280 283 284 290 301 311 313 309 303 298 295 290 286 285 287 290 292 293 294 294 294 293 292 293 294 293 293 293 293 293 293 291 285 277 271 269 269 269 270 271 270 269 269 268 267 268 269 270 269 265 261 263 268 271 271 269 264
300 298 295 294 292 291 291 291 291 291 290 288 288 289 287 284 285 287 288 289 291 287 279 271 268 275 284 288 288 291 297 302 306 308 309 308 303 297 291 287 285 287 290 291 292 293 294 295 295 294 293 293 293 292 291 290 289 288 287 285 283 282 280 279 279 278 276 275 273 270 268 265 262 262 263 265 269 270 270 272 275 275 274 272 266
298 297 296 296 294 292 291 290 289 288 288 288 290 292 292 291 291 291 290 291 295 295 292 288 289 298 312 315 313 312 312 309 307 306 305 303 298 292 287 287 289 290 290 288 287 288 291 293 294 295 296 296 295 294 292 290 288 288 287 283 279 276 276 277 278 278 277 275 272 268 264 261 261 262 263 263 265 265 265 267 266 264 262 264 265
305 303 302 301 300 298 298 299 297 295 294 292 292 293 293 292 292 294 296 299 302 302 302 307 316 321 319 318 318 317 314 311 309 307 303 297 293 290 288 288 289 289 287 285 285 286 288 291 293 294 295 297 297 296 295 293 289 286 284 281 278 275 274 274 273 272 270 268 265 263 259 254 252 255 258 260 263 263 261 260 259 259 259 262 264
315 314 312 311 310 308 307 307 306 305 304 303 301 300 299 298 298 302 307 311 313 313 313 321 328 329 324 319 315 311 308 306 303 300 297 293 290 289 288 287 286 285 284 284 285 287 288 289 291 292 293 295 296 296 294 292 289 285 281 278 277 275 273 271 267 264 261 259 256 254 251 247 246 246 248 250 254 256 256 255 256 256 257 258 259
325 325 324 324 323 322 320 319 318 318 319 318 315 312 310 308 307 309 311 315 319 322 323 325 328 330 328 321 314 307 303 300 296 293 290 288 286 286 286 285 284 284 284 284 285 287 289 290 291 291 291 292 294 296 294 290 288 287 285 280 278 278 278 273 264 255 249 244 239 239 239 239 238 240 241 243 246 248 248 249 249 247 244 244 244